| time (UTC) | temp F | wind direction | speed MPH | gust MPH | rain 1hr in | rain 24hr in | rain mn in | humidity % | barometer mb |
| 20260901214532 | 91 | 151 | 9.0 | 22.0 | 0.00 | 0.00 | 0.00 | 28 | 1007.5 |
| 20260901213030 | 92 | 360 | 11.0 | 21.0 | 0.00 | 0.00 | 0.00 | 28 | 1007.6 |
| 20260901211526 | 92 | 360 | 11.0 | 23.0 | 0.00 | 0.00 | 0.00 | 29 | 1007.9 |
| 20260901210023 | 92 | 196 | 11.0 | 18.0 | 0.00 | 0.00 | 0.00 | 30 | 1008.0 |
| 20260901204522 | 92 | 186 | 15.0 | 22.0 | 0.00 | 0.00 | 0.00 | 30 | 1008.3 |
| 20260901203018 | 91 | 159 | 11.0 | 20.0 | 0.00 | 0.00 | 0.00 | 29 | 1008.7 |
| 20260901201515 | 91 | 182 | 15.0 | 23.0 | 0.00 | 0.00 | 0.00 | 30 | 1009.0 |
| 20260901200017 | 90 | 135 | 9.0 | 18.0 | 0.00 | 0.00 | 0.00 | 32 | 1009.1 |
| 20260901194512 | 91 | 219 | 14.0 | 22.0 | 0.00 | 0.00 | 0.00 | 29 | 1009.3 |
| 20260901193009 | 90 | 190 | 13.0 | 21.0 | 0.00 | 0.00 | 0.00 | 31 | 1009.4 |
| 20260901191608 | 90 | 179 | 11.0 | 21.0 | 0.00 | 0.00 | 0.00 | 31 | 1009.7 |
| 20260901190007 | 90 | 202 | 11.0 | 24.0 | 0.00 | 0.00 | 0.00 | 32 | 1009.7 |
| 20260901184505 | 89 | 184 | 11.0 | 22.0 | 0.00 | 0.00 | 0.00 | 33 | 1010.0 |
| 20260901183008 | 89 | 196 | 14.0 | 21.0 | 0.00 | 0.00 | 0.00 | 33 | 1010.2 |
| 20260901181502 | 89 | 165 | 8.0 | 22.0 | 0.00 | 0.00 | 0.00 | 31 | 1010.3 |
| 20260901180059 | 89 | 155 | 11.0 | 19.0 | 0.00 | 0.00 | 0.00 | 31 | 1010.6 |
| 20260901174558 | 88 | 173 | 9.0 | 18.0 | 0.00 | 0.00 | 0.00 | 31 | 1010.7 |
| 20260901173136 | 88 | 226 | 10.0 | 17.0 | 0.00 | 0.00 | 0.00 | 33 | 1010.8 |
| 20260901171600 | 89 | 209 | 11.0 | 19.0 | 0.00 | 0.00 | 0.00 | 33 | 1010.8 |
| 20260901170100 | 87 | 195 | 6.0 | 21.0 | 0.00 | 0.00 | 0.00 | 34 | 1010.8 |
| 20260901164552 | 88 | 206 | 11.0 | 24.0 | 0.00 | 0.00 | 0.00 | 38 | 1010.8 |
| 20260901163107 | 86 | 225 | 19.0 | 23.0 | 0.00 | 0.00 | 0.00 | 42 | 1010.8 |
| 20260901161551 | 85 | 360 | 16.0 | 24.0 | 0.00 | 0.00 | 0.00 | 45 | 1010.7 |
| 20260901160042 | 84 | 228 | 19.0 | 23.0 | 0.00 | 0.00 | 0.00 | 46 | 1010.7 |
| 20260901154542 | 84 | 234 | 18.0 | 24.0 | 0.00 | 0.00 | 0.00 | 47 | 1010.7 |
| 20260901153036 | 82 | 360 | 14.0 | 22.0 | 0.00 | 0.00 | 0.00 | 50 | 1010.9 |
| 20260901151534 | 80 | 206 | 18.0 | 26.0 | 0.00 | 0.00 | 0.00 | 52 | 1011.0 |
| 20260901150029 | 79 | 222 | 18.0 | 23.0 | 0.00 | 0.00 | 0.00 | 53 | 1010.9 |
| 20260901144527 | 79 | 216 | 19.0 | 30.0 | 0.00 | 0.00 | 0.00 | 54 | 1011.0 |
| 20260901143027 | 79 | 183 | 16.0 | 25.0 | 0.00 | 0.00 | 0.00 | 53 | 1011.2 |
| 20260901141532 | 78 | 189 | 16.0 | 20.0 | 0.00 | 0.00 | 0.00 | 54 | 1011.2 |
| 20260901140023 | 77 | 223 | 13.0 | 17.0 | 0.00 | 0.00 | 0.00 | 55 | 1011.4 |
| 20260901134520 | 76 | 211 | 14.0 | 23.0 | 0.00 | 0.00 | 0.00 | 56 | 1011.4 |
| 20260901133020 | 75 | 198 | 12.0 | 22.0 | 0.00 | 0.00 | 0.00 | 57 | 1011.4 |
| 20260901131522 | 74 | 213 | 13.0 | 21.0 | 0.00 | 0.00 | 0.00 | 58 | 1011.4 |
| 20260901130016 | 73 | 209 | 13.0 | 17.0 | 0.00 | 0.00 | 0.00 | 59 | 1011.3 |
| 20260901124515 | 73 | 196 | 11.0 | 16.0 | 0.00 | 0.00 | 0.00 | 59 | 1011.1 |
| 20260901123028 | 72 | 201 | 9.0 | 13.0 | 0.00 | 0.00 | 0.00 | 59 | 1011.0 |
| 20260901121517 | 72 | 207 | 9.0 | 14.0 | 0.00 | 0.00 | 0.00 | 59 | 1010.9 |
| 20260901120011 | 71 | 199 | 8.0 | 13.0 | 0.00 | 0.00 | 0.00 | 59 | 1010.9 |
| 20260901114511 | 71 | 182 | 8.0 | 12.0 | 0.00 | 0.00 | 0.00 | 59 | 1010.9 |
| 20260901113012 | 72 | 180 | 8.0 | 16.0 | 0.00 | 0.00 | 0.00 | 57 | 1010.8 |
| 20260901111509 | 71 | 196 | 9.0 | 16.0 | 0.00 | 0.00 | 0.00 | 58 | 1010.7 |
| 20260901110009 | 71 | 205 | 8.0 | 14.0 | 0.00 | 0.00 | 0.00 | 57 | 1010.8 |
| 20260901104507 | 71 | 175 | 7.0 | 9.0 | 0.00 | 0.00 | 0.00 | 59 | 1010.7 |
| 20260901103008 | 70 | 192 | 6.0 | 10.0 | 0.00 | 0.00 | 0.00 | 58 | 1010.6 |
| 20260901101509 | 70 | 209 | 6.0 | 7.0 | 0.00 | 0.00 | 0.00 | 58 | 1010.6 |
| 20260901100004 | 70 | 159 | 4.0 | 7.0 | 0.00 | 0.00 | 0.00 | 57 | 1010.6 |
| 20260901094559 | 71 | 172 | 5.0 | 7.0 | 0.00 | 0.00 | 0.00 | 55 | 1010.6 |
| 20260901093056 | 72 | 178 | 4.0 | 8.0 | 0.00 | 0.00 | 0.00 | 54 | 1010.7 |
| 20260901091553 | 74 | 178 | 5.0 | 10.0 | 0.00 | 0.00 | 0.00 | 51 | 1010.6 |
| 20260901090059 | 75 | 180 | 4.0 | 8.0 | 0.00 | 0.00 | 0.00 | 50 | 1010.6 |
| 20260901084609 | 75 | 165 | 5.0 | 11.0 | 0.00 | 0.00 | 0.00 | 50 | 1010.5 |
| 20260901083051 | 75 | 161 | 5.0 | 10.0 | 0.00 | 0.00 | 0.00 | 50 | 1010.3 |
| 20260901081550 | 76 | 151 | 6.0 | 11.0 | 0.00 | 0.00 | 0.00 | 49 | 1010.4 |
| 20260901080107 | 76 | 191 | 6.0 | 9.0 | 0.00 | 0.00 | 0.00 | 49 | 1010.4 |
| 20260901074602 | 75 | 132 | 5.0 | 10.0 | 0.00 | 0.00 | 0.00 | 49 | 1010.3 |
| 20260901073051 | 74 | 148 | 4.0 | 7.0 | 0.00 | 0.00 | 0.00 | 51 | 1010.5 |
| 20260901071546 | 74 | 144 | 2.0 | 7.0 | 0.00 | 0.00 | 0.00 | 52 | 1010.4 |
| 20260901070045 | 74 | 161 | 3.0 | 6.0 | 0.00 | 0.00 | 0.00 | 52 | 1010.4 |
| 20260901064544 | 74 | 160 | 2.0 | 6.0 | 0.00 | 0.00 | 0.00 | 53 | 1010.5 |
| 20260901063047 | 74 | 161 | 3.0 | 7.0 | 0.00 | 0.00 | 0.00 | 53 | 1010.5 |
| 20260901061539 | 75 | 145 | 3.0 | 8.0 | 0.00 | 0.00 | 0.00 | 51 | 1010.4 |
| 20260901060041 | 75 | 171 | 4.0 | 7.0 | 0.00 | 0.00 | 0.00 | 51 | 1010.5 |
| 20260901054535 | 76 | 171 | 5.0 | 8.0 | 0.00 | 0.00 | 0.00 | 50 | 1010.5 |
| 20260901053036 | 76 | 360 | 3.0 | 7.0 | 0.00 | 0.00 | 0.00 | 50 | 1010.4 |
| 20260901051530 | 76 | 360 | 4.0 | 6.0 | 0.00 | 0.00 | 0.00 | 49 | 1010.3 |
| 20260901050027 | 77 | 172 | 5.0 | 7.0 | 0.00 | 0.00 | 0.00 | 48 | 1010.2 |
| 20260901044527 | 77 | 155 | 3.0 | 7.0 | 0.00 | 0.00 | 0.00 | 47 | 1010.2 |
| 20260901043027 | 78 | 157 | 4.0 | 11.0 | 0.00 | 0.00 | 0.00 | 46 | 1010.1 |
| 20260901041526 | 79 | 172 | 4.0 | 7.0 | 0.00 | 0.00 | 0.00 | 44 | 1010.1 |
| 20260901040026 | 79 | 157 | 4.0 | 7.0 | 0.00 | 0.00 | 0.00 | 44 | 1009.9 |
| 20260901034531 | 80 | 148 | 5.0 | 10.0 | 0.00 | 0.00 | 0.00 | 42 | 1009.8 |
| 20260901033025 | 80 | 148 | 4.0 | 11.0 | 0.00 | 0.00 | 0.00 | 41 | 1009.5 |
| 20260901031526 | 80 | 156 | 3.0 | 6.0 | 0.00 | 0.00 | 0.00 | 41 | 1009.1 |
| 20260901030023 | 81 | 160 | 4.0 | 7.0 | 0.00 | 0.00 | 0.00 | 40 | 1008.8 |
| 20260901024523 | 81 | 146 | 3.0 | 6.0 | 0.00 | 0.00 | 0.00 | 40 | 1008.5 |
| 20260901023022 | 81 | 167 | 4.0 | 8.0 | 0.00 | 0.00 | 0.00 | 40 | 1008.2 |
| 20260901021529 | 82 | 360 | 4.0 | 5.0 | 0.00 | 0.00 | 0.00 | 38 | 1007.8 |
| 20260901020021 | 83 | 161 | 3.0 | 8.0 | 0.00 | 0.00 | 0.00 | 37 | 1007.5 |
| 20260901014521 | 84 | 157 | 4.0 | 10.0 | 0.00 | 0.00 | 0.00 | 35 | 1007.2 |
| 20260901013021 | 85 | 169 | 5.0 | 11.0 | 0.00 | 0.00 | 0.00 | 34 | 1007.1 |
| 20260901011519 | 87 | 173 | 6.0 | 11.0 | 0.00 | 0.00 | 0.00 | 32 | 1007.0 |
| 20260901010033 | 88 | 360 | 6.0 | 12.0 | 0.00 | 0.00 | 0.00 | 31 | 1006.9 |
| 20260901004518 | 89 | 360 | 7.0 | 13.0 | 0.00 | 0.00 | 0.00 | 30 | 1006.9 |
| 20260901003022 | 89 | 360 | 8.0 | 19.0 | 0.00 | 0.00 | 0.00 | 30 | 1006.8 |
| 20260901001526 | 90 | 360 | 9.0 | 20.0 | 0.00 | 0.00 | 0.00 | 29 | 1006.7 |
| 20260901000019 | 91 | 360 | 11.0 | 18.0 | 0.00 | 0.00 | 0.00 | 29 | 1006.8 |
| 20260831234519 | 91 | 171 | 8.0 | 17.0 | 0.00 | 0.00 | 0.00 | 28 | 1006.7 |
| 20260831233033 | 91 | 360 | 9.0 | 18.0 | 0.00 | 0.00 | 0.00 | 27 | 1006.7 |
| 20260831231520 | 92 | 153 | 8.0 | 18.0 | 0.00 | 0.00 | 0.00 | 27 | 1006.7 |
| 20260831230014 | 92 | 360 | 10.0 | 16.0 | 0.00 | 0.00 | 0.00 | 27 | 1006.9 |
| 20260831224514 | 92 | 182 | 11.0 | 22.0 | 0.00 | 0.00 | 0.00 | 27 | 1006.9 |
| 20260831223014 | 92 | 360 | 7.0 | 17.0 | 0.00 | 0.00 | 0.00 | 28 | 1007.0 |
| 20260831221515 | 92 | 165 | 11.0 | 21.0 | 0.00 | 0.00 | 0.00 | 27 | 1007.1 |
| 20260831220013 | 92 | 360 | 7.0 | 19.0 | 0.00 | 0.00 | 0.00 | 28 | 1007.1 |